ログ速トップ
サイトで絞り込む
love」で検索 55173件中 1 - 50 表示
板名 タイトル レス数 更新日付 勢い
地下アイドル sc 【HKT48卒業生/=LOVE・P/≠ME・P】さっしーこと指原莉乃応援スレ★5238 689 2021-01-27 00:08 303
地下アイドル sc 【指原P】=LOVE★229【イコラブ】 41 2021-01-27 00:00 291
AKBサロン sc 【=LOVE】大谷映美里 応援スレ【イコラブ】★6 590 2021-01-26 23:24 9
YouTube sc Love&Freedom(Minimalist & Freedom)【妄想系底辺】Part12 842 2021-01-26 22:25 25
なんでも実況J sc 元カノとLovers Againしたい 6 2021-01-26 22:23 5760
邦楽女性ソロ sc aiko LOVE LIKE POP Vol.611 (ワッチョイ有り) 956 2021-01-26 22:22 11
ビートルズ sc Power to the ミジンコ【LOVE】ミジンコ最高! 130 2021-01-26 22:21 1
ビートルズ sc オノ・ヨーコ【LOVE】ミジンコ最高!#9 32 2021-01-26 22:18 0
なんでも実況J sc To LOVEるダークネス連載してたときに中学生だったやつって誰で徹底的にシコってたの? 33 2021-01-26 22:02 4504
HR・HM sc 【ラブバイツ】LOVEBITES 23【日本史上最強】 832 2021-01-26 21:41 16
地下アイドル sc 【指原P】=LOVE★228【イコラブ】 1001 2021-01-26 21:28 151
ハングル sc 【恨J民】ぬぅぬさん 2体目【Doll Lover】 93 2021-01-26 21:23 0
漫画キャラ sc To LOVEる-とらぶる- 西連寺春菜萌えpart98 613 2021-01-26 21:07 2
懐かし漫画 sc 【矢吹】To LOVEる-とらぶる-part312【長谷見】 925 2021-01-26 20:38 1
邦楽男性ソロ sc 【真性レインボー】浅倉大介スレPart119【男LOVE】 39 2021-01-26 20:36 5
なんでも実況J open To LOVEる ←抜ける 幽奈さん←抜けない 7 2021-01-26 20:29 311
YouTube sc 【バーチャルYouTuber】loveちゃんねる #3 458 2021-01-26 20:27 5
HR・HM sc 【Makesomenoise】LOVEBITES 17【Raisesomehell】 907 2021-01-26 20:01 2
カメラ sc WE LOVE ZUIKO!!!オリンパスレンズ 15 767 2021-01-26 19:34 0
ビートルズ sc ジョン・レノン【LOVE】ミジンコ最高!#9 268 2021-01-26 19:32 3
ビートルズ sc ア・ハード・デイズ・ナイト【LOVE】ミジンコ最高!#9 14 2021-01-26 19:31 0
AKBサロン sc 【=LOVE】山本杏奈 応援スレ【イコラブ】★6 465 2021-01-26 19:22 7
テレビ番組 sc 【相葉雅紀】I LOVEみんなのどうぶつ園 part1 279 2021-01-26 19:18 2
女向ゲー一般 sc 【ボル】乙女@天下統一恋の乱 Love Ballad18 241 2021-01-26 18:51 5
なんでも実況J sc 育子…baby i love 2 2021-01-26 18:39 3323
アニキャラ個別 sc 【ミュークルドリーミー】月島まいらはMY LOVEあぽーんかわいい2 146 2021-01-26 18:39 1
AKBサロン sc 【TBS SASUKE 20番】=LOVE 瀧脇笙古 応援スレ【イコラブ】★4 230 2021-01-26 18:35 5
アナウンサー sc 【テレ朝】林美沙希 part46【JチャンメインMC麻雀LOVE】 873 2021-01-26 18:15 28
ニュー速VIP sc 【画像】彼女とLove HotelきたWWWWWWWWWWWWWWWWWWWWWWWWWWWWWWWWWWWWWWWWWWWWWWWWWWWWWWWWWWWWWWWWWWWWWWWWWWWWWWWWWWWWWWWWWWWWWWWWWWWW 5 2021-01-26 17:47 6750
AKBサロン sc 【=LOVE】大場花菜 応援スレ【イコラブ】★3 512 2021-01-26 17:41 2
女性アイドル sc ニコニコ♡LOVERS ニコラバ Part10 472 2021-01-26 17:22 8
漫画キャラ sc 【To LOVEる-とらぶる-】ララ・サタリン・デビルーク萌えスレ 28 927 2021-01-26 17:09 8
男性アイドル sc 7ORDERを語ろう【元Love-tune】 277 2021-01-26 16:36 1
ディスコ sc anotherloveinmyheart9265匹目 801 2021-01-26 16:33 2
邦楽グループ sc THE YELLOW MONKEY & 眞鍋かをりLOVE 35 2021-01-26 16:00 0
邦楽グループ sc -=☆m-flo★50年後の自分にメッセージ★loves復活☆=- 149 2021-01-26 15:25 0
ギャルゲー sc LoveR(ラヴアール) 257 2021-01-26 14:59 0
難民 sc 翔ちゃんと雅紀のスレ(櫻葉AA有) 22LOVE目 218 2021-01-26 14:46 21
アジアエンタメ sc 【中国ドラマ】三生三世枕上書 Eternal Love of Dream 605 2021-01-26 14:34 1
なんでも実況J sc プロ野球で活躍してるの30代ばっか おっさんズloveかな 6 2021-01-26 14:16 2356
ニュー速VIP sc 少年漫画の「死んだら殺す」は「I LOVE YOU」と同義です 6 2021-01-26 13:43 1149
ニュー速VIP sc 俺ガイルの小町、五等分のるいは、ToLOVEるの美柑、SAOの直葉 19 2021-01-26 13:32 2713
ビートルズ sc ミジンコは栗本さんではありません【LOVE】ミジンコ最高! 64 2021-01-26 12:35 2
ビートルズ sc ロックン・ロール・ミュージック【LOVE】ミジンコ最高!#9 8 2021-01-26 12:34 0
ビートルズ sc アイル・フォロー・ザ・サン【LOVE】ミジンコ最高!#9 7 2021-01-26 12:34 0
アジアエンタメ sc 【LOVELYZ】ラブリーズ21【契約更新】 245 2021-01-26 12:17 5
家庭用ゲーム sc 【Switch/PS4】LoveR(ラヴアール)総合 R24 116 2021-01-26 12:00 6
HR・HM sc LOVEBITES vs BAND-MAID 7 413 2021-01-26 10:53 3
少年漫画 sc 【矢吹】To LOVEる-とらぶる-part294【長谷見】 607 2021-01-26 10:11 0
邦楽グループ sc 【KilyE】SOUL'd OUT 総合 116【love】 528 2021-01-26 08:30 2

スポンサードリンク